Regional Weather Roundup
Issued by NWS

Home | Current Version | Previous Version | Graphics & Text | Print | Product List | Glossary On
Versions: 1 2 3 4 5 6 7 8 9 10 11 12 13 14 15 16 17 18 19 20 21 22 23 24 25 26 27 28 29 30 31 32 33 34 35 36 37 38 39 40 41 42 43 44 45 46 47 48 49 50
000
ASUS43 KIND 281009
RWRIN

WEATHER ROUNDUP FOR INDIANA
NATIONAL WEATHER SERVICE INDIANAPOLIS IN
600 AM EDT TUE MAR 28 2017

NOTE: "FAIR" INDICATES FEW OR NO CLOUDS BELOW 12,000 FEET WITH NO
SIGNIFICANT WEATHER AND/OR OBSTRUCTIONS TO VISIBILITY.

* - STATION DOES NOT REPORT WEATHER SUCH AS PRECIPITATION OR FOG.

+ - STATION NOT QUALITY CONTROLLED BY THE NATIONAL WEATHER SERVICE.
    USE DATA WITH CAUTION...ESPECIALLY DEWPOINT AND RELATIVE
    HUMIDITY OBSERVATIONS.

INZ001>003-010>013-019-020-281100-
NORTHWEST INDIANA

CITY           SKY/WX    TMP DP  RH WIND       PRES   REMARKS
GARY /AIRPORT/ CLOUDY    39  37  93 N8        30.01S
KNOX *+        CLOUDY    37  28  70 N7        29.97R
LA PORTE +     CLOUDY    38  37  94 N12       29.98R
MICHIGAN CITY+ CLOUDY    37  37 100 N12       29.99S
MONTICELLO +   CLOUDY    42  39  88 N8        29.94S
RENSSELAER +   CLEAR     37  37 100 N5        29.97R
VALPARAISO     CLOUDY    39  37  92 N9        29.98R

$$

LMZ046-743>745-281100-
SOUTHERN LAKE MICHIGAN

STATION/POSITION TIME  TEMP    WIND        PRES    WAVE
                       AIR SEA DIR/SP/G            HT
                 (UTC) (F)     (DEG/KT/KT) (MB)    (FT)
BURNS HARBOR     0940   38     360/ 11/ 15 1016.3S
MICHIGAN CITY    0940   38     360/ 15/ 16   N/A

$$

INZ004-005-014>016-021>024-281100-
NORTH CENTRAL INDIANA

CITY           SKY/WX    TMP DP  RH WIND       PRES   REMARKS
GOSHEN         CLOUDY    44  40  85 N14       29.95R
LOGANSPORT +   CLOUDY    43  41  93 N13       29.95R
PERU/GRISSOM   CLOUDY    47  47 100 N8        29.92R
ROCHESTER +    CLOUDY    46  43  87 N7        29.95R
SOUTH BEND     CLOUDY    39  37  92 N7        29.97R
WARSAW +       CLOUDY    45  41  87 N7        29.94R

$$

INZ006>009-017-018-025>027-281100-
NORTHEAST INDIANA

CITY           SKY/WX    TMP DP  RH WIND       PRES   REMARKS
ANGOLA *+      CLOUDY    46  36  66 N6        29.93R
AUBURN +       CLOUDY    48  45  87 N6        29.93R
FORT WAYNE     CLOUDY    50  46  86 N12       29.92R
HUNTINGTON +   CLOUDY    48  47  96 N8        29.92R
KENDALLVILLE + CLOUDY    46  45  95 N9        29.93R FOG

$$

INZ028-029-035-036-043>045-051>053-281100-
WEST CENTRAL INDIANA

CITY           SKY/WX    TMP DP  RH WIND       PRES   REMARKS
CRAWFORDSVL +  CLOUDY    45  45 100 N10       29.93S
GREENCASTLE +  CLOUDY    50  48  93 N8        29.92R FOG
LAFAYETTE      CLOUDY    43  41  93 N9        29.94S
TERRE HAUTE    CLOUDY    50  48  93 N12       29.93R

$$

INZ030>032-037>040-046>048-054>057-064-065-281100-
CENTRAL INDIANA

CITY           SKY/WX    TMP DP  RH WIND       PRES   REMARKS
CP ATTERBURY + CLOUDY    54  52  94 N9        29.90R
FRANKFORT +    CLOUDY    47  46  93 N9        29.96R
GREENWOOD *+   CLOUDY    55  53  95 N9        29.90R
INDIANAPOLIS   DRIZZLE   53  51  93 N13       29.91R FOG
-EAGLE CREEK   CLOUDY    52  49  89 N10       29.91R FOG
KOKOMO +       CLOUDY    49  46  90 N12       29.94R
MARION +       CLOUDY    50  48  93 N12       29.93R FOG
MT COMFORT *+  CLOUDY    52  50  93 N12       29.91R
SHELBYVILLE    CLOUDY    55  51  86 N13       29.89R
ZIONSVILLE +   CLOUDY    49  48  95 N13       29.93R FOG

$$

INZ033-034-041-042-049-050-058-059-281100-
EAST CENTRAL INDIANA

CITY           SKY/WX    TMP DP  RH WIND       PRES   REMARKS
MUNCIE         LGT RAIN  53  51  93 N12       29.89R FOG
RICHMOND +     CLOUDY    52  52 100 N8        29.86R FOG

$$

INZ060-061-067>069-081>083-085>088-281100-
SOUTHWEST INDIANA

CITY           SKY/WX    TMP DP  RH WIND       PRES   REMARKS
EVANSVILLE     CLOUDY    56  54  93 W3        29.91R FOG
HUNTINGBURG *+ CLOUDY    54  53  97 W6        29.90R FOG
WASHINGTON +   CLOUDY    55  54  94 MISG      29.90R

$$

INZ062-063-066-070>080-084-089>092-281100-
SOUTH CENTRAL AND SOUTHEAST INDIANA

CITY           SKY/WX    TMP DP  RH WIND       PRES   REMARKS
BEDFORD +      FOG       55  52  88 NW5       29.88  VSB 1
BLOOMINGTON    CLOUDY    55  52  89 N10       29.89R
MADISON *+     CLOUDY    55  54  94 W6        29.89R
NORTH VERNON + CLOUDY   N/A N/A N/A W5        29.87  HAZE
SEYMOUR +      CLOUDY    55  55 100 NW5       29.88R FOG

$$




USA.gov is the U.S. government's official web portal to all federal, state and local government web resources and services.